Location: Gull Harbor
(47.1000°N, 122.9000°W)
Time: 14:06:08
(UTC-08:00)

N. Korean satellite - Visible Passes

Search period start: 12 December 2018 00:00
Search period end: 22 December 2018 00:00
Orbit: 456 x 511 km, 97.2° (Epoch: 12 December)

Date Brightness Start Highest point End Pass type
(mag) Time Alt. Az. Time Alt. Az. Time Alt. Az.
12 Dec 6.4 06:45:38 10° N 06:49:11 72° WNW 06:52:46 10° SSW visible
12 Dec 6.4 17:24:16 10° SSE 17:27:39 63° ENE 17:31:05 10° N visible
13 Dec 7.3 06:21:06 10° NNE 06:24:36 55° E 06:28:09 10° S visible
13 Dec 7.2 17:00:06 10° SE 17:03:10 31° ENE 17:06:16 10° N visible
13 Dec 9.5 18:34:21 10° SW 18:36:43 17° W 18:39:07 10° NW visible
14 Dec 8.8 05:56:50 10° NE 05:59:57 28° E 06:03:06 10° SSE visible
14 Dec 8.3 18:08:52 10° SSW 18:12:00 33° W 18:15:10 10° NNW visible
15 Dec 9.8 05:33:04 10° NE 05:35:14 15° E 05:37:23 10° SE visible
15 Dec 7.0 07:05:29 10° N 07:08:51 41° WNW 07:12:16 10° SW visible
15 Dec 6.7 17:43:56 10° S 17:47:21 70° WSW 17:50:48 10° NNW visible
16 Dec 6.5 06:40:44 10° N 06:44:20 83° WNW 06:47:58 10° SSW visible
16 Dec 6.5 17:19:26 10° SSE 17:22:47 55° ENE 17:26:11 10° N visible
16 Dec 10.1 18:56:02 10° W 18:56:37 10° W 18:57:11 10° W visible
17 Dec 7.6 06:16:14 10° NNE 06:19:44 48° E 06:23:17 10° S visible
17 Dec 7.4 16:55:21 10° SE 16:58:18 28° ENE 17:01:18 10° N visible
17 Dec 9.3 18:29:13 10° SW 18:31:48 20° W 18:34:24 10° NW visible
18 Dec 9.0 05:52:01 10° NE 05:55:04 25° E 05:58:08 10° SSE visible
18 Dec 8.0 18:03:51 10° SSW 18:07:04 38° W 18:10:20 10° NNW visible
19 Dec 9.9 05:28:22 10° ENE 05:30:18 14° E 05:32:13 10° ESE visible
19 Dec 6.8 07:00:31 10° N 07:03:59 46° WNW 07:07:31 10° SSW visible
19 Dec 6.5 17:39:00 10° S 17:42:26 81° WSW 17:45:55 10° NNW visible
20 Dec 6.6 06:35:49 10° NNE 06:39:27 87° ESE 06:43:07 10° SSW visible
20 Dec 6.7 17:14:34 10° SSE 17:17:52 48° ENE 17:21:14 10° N visible
20 Dec 10.0 18:50:17 10° WSW 18:51:37 12° W 18:52:59 10° WNW visible
21 Dec 7.9 06:11:20 10° NNE 06:14:49 42° E 06:18:20 10° S visible
21 Dec 9.1 18:24:04 10° SSW 18:26:49 22° W 18:29:37 10° NW visible
